STARLINK-31961 (59894 NORAD) Tracking and Keplerian Element Data

This shows tracking and keplerian element data for the satellite.

Feedback or suggestion? Click here.




ElementValue
Catalog59894
NameSTARLINK-31961
Epoch Orbit290
Epoch Day160.16667824
Epoch Year2024
RAAN174.3585
Inclination43.0035
Eccentricity0.0001121
Argument of Perigee272.4603
Mean Anonmoly321.8539
Mean Motion15.79959154
Decay Rate-0.01021754
L11 59894U 24100K 24160.16667824 -.01021754 00000+0 -60095-2 0 9998
L22 59894 43.0035 174.3585 0001121 272.4603 321.8539 15.79959154 2901



Live tracking and technical data element details for STARLINK-31961 (NORAD 59894). STARLINK-31961 can be tracked NOW for your location showing map with azimuth and elevation plus other details from your city location.







IsCatalogInMostPopularTable: catalog: 59894, numindb: 9
Update: records affected: 1



GetName: 59894 STARLINK-31961

Hit Count: updated at: Thu, 25 Jul 2024 01:05:21 GMT